Content
SEND FEEDBACK

Daily
Averages
Monthly
Summary
United States of America

WILMINGTON, NORTH CAROLINA


Home > North America > United States > North Carolina
Elevation: 72 feet     Latitude: 34 16N     Longitude: 077 54W

WEATHER
 
SELECT A DAY
Number of Records: 211,632;   Date Range: 1/1/95 - 9/28/14
 
SHARE

PRINT THIS DATA

[ ← Previous Day ]
WEATHER ALMANAC - MAY 19, 2013
[ Next Day → ]
[ °C ]   °F
Weather ElementAverageHighLow
Temperature75 °F80.6 °F (12:00 pm)66.2 °F (5:53 am)
Dewpoint66 °F68 °F (8:53 am)64.4 °F (5:53 am)
Humidity74.5 %94 % (5:53 am)58 % (12:00 pm)
Barometer30.13 in30.17 in (8:53 am)30.10 in (3:53 pm)
Wind Speed7.5 mph15 mph (3:53 pm)
Wind Gust21.9 mph (6:18 pm)
Weather ElementAverage
Visibility10 mi
Wind DirectionSE (140.3 °)

Weather ElementTotal
Precipitation---
Cooling Degree Days8.4 (Base 65)
Growing Degree Days23.4 (Base 50)
Averaged from 30 records on May 19, 2013
WEATHER CONDITIONS BREAKOUT
WIND DIRECTION BREAKOUT
WEATHER BY HOUR - MAY 19, 2013
[ °C ]   °F
Local TimeTemperatureDewpointHumidityBarometerVisibilityWind DirectionWind SpeedGust SpeedPrecipitationEventsConditions
1:53 AM69.1 °F66.0 °F90 %30.14 in10.0 miCalmClear
2:53 AM66.9 °F64.9 °F93 %30.13 in10.0 miSSE (160°)3.5 mphClear
3:53 AM69.1 °F66.0 °F90 %30.12 in10.0 miSSE (150°)3.5 mphClear
4:53 AM68.0 °F66.0 °F93 %30.12 in10.0 miCalmClear
5:53 AM66.2 °F64.4 °F94 %30.13 in10.0 miCalmClear
6:53 AM70.0 °F66.9 °F90 %30.15 in10.0 miCalmClear
7:53 AM71.6 °F66.2 °F83 %30.16 in10.0 miSSE (150°)3.5 mphClear
8:53 AM75.9 °F68.0 °F76 %30.17 in10.0 miSouth (170°)8.1 mphClear
9:53 AM78.1 °F66.0 °F66 %30.17 in10.0 miSSE (150°)9.2 mphScattered Clouds
10:38 AM78.8 °F64.4 °F61 %30.17 in10.0 miSouth (180°)9.2 mphMostly Cloudy
10:53 AM77.0 °F64.9 °F66 %30.17 in10.0 miSouth (190°)8.1 mphMostly Cloudy
11:32 AM78.8 °F64.4 °F61 %30.16 in10.0 miSSE (160°)6.9 mph16.1 mphOvercast
11:53 AM80.1 °F66.0 °F62 %30.16 in10.0 miSSE (150°)9.2 mphMostly Cloudy
12:00 PM80.6 °F64.4 °F58 %30.16 in10.0 miSSE (160°)11.5 mph18.4 mphMostly Cloudy
12:53 PM80.1 °F66.0 °F62 %30.14 in10.0 miSSE (150°)11.5 mph19.6 mphOvercast
1:09 PM80.6 °F66.2 °F61 %30.13 in10.0 miSouth (170°)12.7 mph18.4 mphThunderstormMostly Cloudy
1:17 PM78.8 °F66.2 °F65 %30.13 in10.0 miSSE (150°)9.2 mphMostly Cloudy
1:53 PM77.0 °F64.9 °F66 %30.13 in10.0 miSSE (160°)11.5 mph18.4 mphPartly Cloudy
2:53 PM78.8 °F66.2 °F65 %30.11 in10.0 miSSE (160°)8.1 mph17.3 mphClear
3:53 PM79.0 °F66.0 °F64 %30.10 in10.0 miSSE (160°)15.0 mph20.7 mphClear
4:53 PM78.1 °F66.0 °F66 %30.10 in10.0 miSSE (160°)11.5 mph19.6 mphPartly Cloudy
5:53 PM77.0 °F66.9 °F71 %30.10 in10.0 miSSE (160°)11.5 mphMostly Cloudy
6:18 PM75.2 °F66.2 °F73 %30.10 in10.0 miSouth (190°)11.5 mph21.9 mphMostly Cloudy
6:25 PM75.2 °F64.4 °F69 %30.10 in10.0 miSouth (180°)13.8 mph19.6 mphMostly Cloudy
6:53 PM75.9 °F66.0 °F71 %30.11 in10.0 miSouth (170°)10.4 mphMostly Cloudy
7:53 PM73.9 °F66.9 °F79 %30.11 in10.0 miSouth (190°)8.1 mphPartly Cloudy
8:53 PM73.0 °F66.9 °F81 %30.12 in10.0 miSSE (160°)5.8 mphClear
9:53 PM73.0 °F68.0 °F84 %30.13 in10.0 miSE (140°)3.5 mphClear
10:53 PM72.0 °F68.0 °F87 %30.14 in10.0 miSE (140°)4.6 mphClear
11:53 PM72.0 °F68.0 °F87 %30.14 in10.0 miSSE (150°)4.6 mphScattered Clouds
Hourly data recorded from KILM, located miles away from Wilmington, North Carolina







STORIES FROM OUR PARTNERS